FW4343 Weather Reports


Display with metric or nautical units.
time (UTC)temp
F
wind
direction
speed
MPH
gust
MPH
rain 1hr
in
rain 24hr
in
rain mn
in
humidity
%
barometer
mb
20260506042343 40 337 4.0 6.0 0.00 0.00 0.00 83 1015.3
20260506041844 40 350 4.0 6.0 0.00 0.00 0.00 83 1015.3
20260506041339 40 5 3.0 5.0 0.00 0.00 0.00 83 1015.2
20260506040855 40 348 2.0 3.0 0.00 0.00 0.00 83 1015.4
20260506040349 40 344 0.0 2.0 0.00 0.00 0.00 83 1015.3
20260506035847 40 344 0.0 2.0 0.00 0.00 0.00 83 1015.4
20260506035351 40 344 0.0 5.0 0.00 0.00 0.00 83 1015.4
20260506034851 40 344 2.0 5.0 0.00 0.00 0.00 83 1015.4
20260506034341 40 344 3.0 4.0 0.00 0.00 0.00 83 1015.4
20260506033840 40 344 1.0 3.0 0.00 0.00 0.00 83 1015.5
20260506033341 40 344 1.0 3.0 0.00 0.00 0.00 83 1015.5
20260506032858 40 344 1.0 5.0 0.00 0.00 0.00 83 1015.6
20260506032354 40 346 3.0 5.0 0.00 0.00 0.00 83 1015.6
20260506031858 40 355 3.0 4.0 0.00 0.00 0.00 83 1015.5
20260506031349 40 355 2.0 4.0 0.00 0.00 0.00 83 1015.6
20260506030846 40 355 2.0 5.0 0.00 0.00 0.00 83 1015.6
20260506030340 40 355 3.0 5.0 0.00 0.00 0.00 83 1015.6
20260506025857 40 360 4.0 6.0 0.00 0.00 0.00 83 1015.6
20260506025400 40 5 4.0 6.0 0.00 0.00 0.00 83 1015.6
20260506024846 40 5 4.0 5.0 0.00 0.00 0.00 83 1015.6
20260506024342 40 5 4.0 5.0 0.00 0.00 0.00 83 1015.6
20260506023838 40 5 4.0 5.0 0.00 0.00 0.00 83 1015.6
20260506023343 40 355 4.0 5.0 0.00 0.00 0.00 83 1015.7
20260506022838 41 355 4.0 6.0 0.00 0.00 0.00 83 1015.7
20260506022340 41 355 4.0 6.0 0.00 0.00 0.00 83 1015.7
20260506021848 41 5 4.0 6.0 0.00 0.00 0.00 83 1015.6
20260506021340 41 350 5.0 6.0 0.00 0.00 0.00 82 1015.6
20260506020842 41 355 5.0 6.0 0.00 0.00 0.00 82 1015.7
20260506020340 41 19 4.0 8.0 0.00 0.00 0.00 82 1015.7
20260506015924 41 23 4.0 8.0 0.00 0.00 0.00 82 1015.7
20260506015342 41 360 5.0 6.0 0.00 0.00 0.00 82 1015.7
20260506014840 41 360 5.0 6.0 0.00 0.00 0.00 82 1015.8
20260506014348 41 360 4.0 6.0 0.00 0.00 0.00 82 1015.8
20260506013905 41 5 5.0 6.0 0.00 0.00 0.00 82 1015.9
20260506013348 42 355 4.0 8.0 0.00 0.00 0.00 82 1015.9
20260506012844 42 360 5.0 8.0 0.00 0.00 0.00 82 1016.0
20260506012341 42 355 5.0 8.0 0.00 0.00 0.00 82 1016.0
20260506011903 42 355 4.0 9.0 0.00 0.00 0.00 82 1016.0
20260506011340 42 355 6.0 9.0 0.00 0.00 0.00 82 1016.0
20260506010858 42 355 6.0 10.0 0.00 0.00 0.00 82 1016.1
20260506010352 42 355 7.0 10.0 0.00 0.00 0.00 82 1016.1
20260506005848 42 5 7.0 10.0 0.00 0.00 0.00 82 1016.1
20260506005350 42 351 7.0 10.0 0.00 0.00 0.00 82 1016.1
20260506004847 42 5 7.0 10.0 0.00 0.00 0.00 82 1016.0
20260506004403 42 360 6.0 10.0 0.00 0.00 0.00 82 1016.1
20260506003901 42 360 9.0 12.0 0.00 0.00 0.00 81 1016.1
20260506003355 42 360 8.0 12.0 0.00 0.00 0.00 81 1016.1
20260506002905 43 5 8.0 11.0 0.00 0.00 0.00 81 1016.0
20260506002350 43 360 8.0 12.0 0.00 0.00 0.00 81 1016.0
20260506001922 43 343 9.0 13.0 0.00 0.00 0.00 81 1016.0
20260506001412 43 16 8.0 13.0 0.00 0.00 0.00 81 1016.0
20260506000851 43 355 8.0 12.0 0.00 0.00 0.00 81 1015.9
20260506000346 43 11 9.0 12.0 0.00 0.00 0.00 81 1015.9
20260505235844 43 360 9.0 11.0 0.00 0.00 0.00 81 1015.9
20260505235344 43 355 9.0 11.0 0.00 0.00 0.00 81 1015.9
20260505234840 44 12 9.0 12.0 0.00 0.00 0.00 82 1015.9
20260505234354 44 355 8.0 12.0 0.00 0.00 0.00 82 1015.9
20260505233855 44 355 9.0 11.0 0.00 0.00 0.00 82 1016.0
20260505233350 44 360 9.0 11.0 0.00 0.00 0.00 83 1016.0
20260505232845 44 5 6.0 9.0 0.00 0.00 0.00 83 1016.0
20260505232348 44 344 5.0 9.0 0.00 0.00 0.00 83 1016.1
20260505231844 44 355 6.0 9.0 0.00 0.00 0.00 83 1016.1
20260505231358 44 355 6.0 9.0 0.00 0.00 0.00 83 1016.1
20260505230854 44 360 7.0 12.0 0.00 0.00 0.00 83 1016.1
20260505230415 44 360 10.0 14.0 0.00 0.00 0.00 83 1016.0
20260505225842 44 18 10.0 14.0 0.00 0.00 0.00 84 1016.1
20260505225406 44 5 6.0 14.0 0.00 0.00 0.00 84 1016.0
20260505224848 44 15 9.0 14.0 0.00 0.00 0.00 84 1016.0
20260505224341 44 5 6.0 8.0 0.00 0.00 0.00 85 1016.0
20260505223842 44 355 4.0 5.0 0.00 0.00 0.00 84 1016.0
20260505223341 44 351 3.0 4.0 0.00 0.00 0.00 84 1016.1
20260505222856 44 15 3.0 4.0 0.00 0.00 0.00 84 1016.0
20260505222418 44 15 3.0 6.0 0.00 0.00 0.00 84 1016.0
20260505221853 44 21 3.0 6.0 0.00 0.00 0.00 83 1016.0
20260505221349 44 5 3.0 4.0 0.00 0.00 0.00 83 1015.9
20260505220914 44 311 1.0 2.0 0.00 0.00 0.00 83 1016.0
20260505220345 44 311 1.0 2.0 0.00 0.00 0.00 83 1015.9
20260505215910 44 311 0.0 2.0 0.00 0.00 0.00 82 1015.9
20260505215347 44 270 0.0 2.0 0.00 0.00 0.00 82 1015.8
20260505214924 44 270 0.0 2.0 0.00 0.00 0.00 81 1015.9
20260505214343 44 270 0.0 1.0 0.00 0.00 0.00 81 1015.8
20260505213851 45 284 0.0 1.0 0.00 0.00 0.00 80 1015.8
20260505213341 45 284 0.0 2.0 0.00 0.00 0.00 79 1015.7
20260505212901 45 284 1.0 2.0 0.00 0.00 0.00 79 1015.7
20260505212339 45 284 0.0 1.0 0.00 0.00 0.00 79 1015.8
20260505211841 45 284 0.0 1.0 0.00 0.00 0.00 79 1015.8
20260505211349 46 284 0.0 1.0 0.00 0.00 0.00 79 1015.8
20260505210851 46 284 0.0 1.0 0.00 0.00 0.00 78 1015.8
20260505210351 46 284 0.0 2.0 0.00 0.00 0.00 78 1015.9
20260505205844 46 273 0.0 2.0 0.00 0.00 0.00 77 1015.8
20260505205349 47 254 0.0 1.0 0.00 0.00 0.00 77 1015.9
20260505204917 47 254 0.0 1.0 0.00 0.00 0.00 77 1015.8
20260505204349 47 254 0.0 3.0 0.00 0.00 0.00 77 1015.8
20260505203850 47 262 1.0 3.0 0.00 0.00 0.00 76 1015.8
20260505203353 47 266 2.0 3.0 0.00 0.00 0.00 76 1015.8
20260505202849 48 345 2.0 3.0 0.00 0.00 0.00 76 1015.8
20260505202350 48 345 1.0 2.0 0.00 0.00 0.00 76 1015.8
20260505201840 48 345 0.0 2.0 0.00 0.00 0.00 76 1015.8
20260505201341 48 345 0.0 2.0 0.00 0.00 0.00 75 1015.8
20260505200857 49 345 0.0 1.0 0.00 0.00 0.00 75 1015.7
20260505200352 49 345 0.0 1.0 0.00 0.00 0.00 74 1015.7
20260505195911 49 345 0.0 2.0 0.00 0.00 0.00 74 1015.7
20260505195347 50 345 0.0 2.0 0.00 0.00 0.00 74 1015.7
20260505194838 50 345 0.0 2.0 0.00 0.00 0.00 74 1015.7
20260505194424 50 345 0.0 2.0 0.00 0.00 0.00 75 1015.6
20260505193859 50 345 0.0 2.0 0.00 0.00 0.00 75 1015.6
20260505193354 50 345 0.0 2.0 0.00 0.00 0.00 75 1015.7
20260505192851 50 345 0.0 1.0 0.00 0.00 0.00 75 1015.7
20260505192404 50 345 0.0 1.0 0.00 0.00 0.00 76 1015.6
20260505191901 50 345 0.0 2.0 0.00 0.00 0.00 76 1015.6
20260505191358 51 345 0.0 5.0 0.00 0.00 0.00 75 1015.5
20260505190900 51 355 3.0 5.0 0.00 0.00 0.00 75 1015.5
20260505190400 51 355 2.0 4.0 0.00 0.00 0.00 75 1015.5
20260505185859 52 355 3.0 6.0 0.00 0.00 0.00 74 1015.4
20260505185357 52 355 4.0 8.0 0.00 0.00 0.00 74 1015.5
20260505184847 52 345 5.0 8.0 0.00 0.00 0.00 73 1015.5
20260505184429 52 347 5.0 9.0 0.00 0.00 0.00 74 1015.5
20260505183857 52 350 6.0 9.0 0.00 0.00 0.00 73 1015.4
20260505183351 52 355 5.0 8.0 0.00 0.00 0.00 73 1015.5
20260505182846 52 346 5.0 8.0 0.00 0.00 0.00 73 1015.4
20260505182348 52 355 5.0 8.0 0.00 0.00 0.00 74 1015.5
20260505181900 52 9 5.0 8.0 0.00 0.00 0.00 74 1015.5
20260505181400 53 355 3.0 8.0 0.00 0.00 0.00 75 1015.5
20260505180850 53 347 4.0 8.0 0.00 0.00 0.00 73 1015.5
20260505180352 53 350 4.0 8.0 0.00 0.00 0.00 73 1015.5
20260505175843 53 360 4.0 10.0 0.00 0.00 0.00 73 1015.5
20260505175400 53 355 4.0 10.0 0.00 0.00 0.00 73 1015.6
20260505174841 53 355 5.0 9.0 0.00 0.00 0.00 72 1015.6
20260505174404 53 360 6.0 9.0 0.00 0.00 0.00 73 1015.5
20260505173914 53 355 6.0 9.0 0.00 0.00 0.00 73 1015.5
20260505173349 53 5 7.0 9.0 0.00 0.00 0.00 72 1015.5
20260505172848 53 355 4.0 8.0 0.00 0.00 0.00 74 1015.6
20260505172347 53 347 5.0 8.0 0.00 0.00 0.00 74 1015.6
20260505171850 53 360 5.0 8.0 0.00 0.00 0.00 73 1015.7
20260505171347 53 360 4.0 8.0 0.00 0.00 0.00 74 1015.6
20260505170902 54 17 5.0 9.0 0.00 0.00 0.00 73 1015.8
20260505170342 54 355 4.0 10.0 0.00 0.00 0.00 71 1015.7
20260505165843 54 346 7.0 10.0 0.00 0.00 0.00 72 1015.7
20260505165351 55 22 6.0 9.0 0.00 0.00 0.00 72 1015.8
20260505164851 54 12 5.0 11.0 0.00 0.00 0.00 74 1015.8
20260505164356 54 10 8.0 11.0 0.00 0.00 0.00 73 1015.8
20260505163848 54 24 5.0 9.0 0.00 0.00 0.00 73 1015.8
20260505163342 54 5 5.0 10.0 0.00 0.00 0.00 74 1015.8
20260505162857 54 338 5.0 10.0 0.00 0.00 0.00 74 1015.8
20260505162349 54 30 6.0 9.0 0.00 0.00 0.00 72 1015.9
20260505161849 54 24 7.0 11.0 0.00 0.00 0.00 73 1015.9
20260505161347 54 17 6.0 11.0 0.00 0.00 0.00 73 1015.8
20260505160845 54 360 6.0 9.0 0.00 0.00 0.00 73 1015.9
20260505160341 54 355 7.0 10.0 0.00 0.00 0.00 73 1015.9
20260505152912 53 5 9.0 13.0 0.00 0.00 0.00 73 1015.9
20260505152346 53 348 11.0 14.0 0.00 0.00 0.00 73 1015.9
20260505151848 53 360 10.0 14.0 0.00 0.00 0.00 73 1015.9
20260505151347 53 16 12.0 14.0 0.00 0.00 0.00 73 1015.9
20260505150907 53 355 10.0 15.0 0.00 0.00 0.00 75 1015.9
20260505150405 53 22 10.0 19.0 0.00 0.00 0.00 74 1015.9
20260505140341 56 20 5.0 10.0 0.00 0.00 0.00 71 1016.0
20260505124845 52 32 9.0 12.0 0.00 0.00 0.00 77 1016.0
20260505124344 51 22 10.0 12.0 0.00 0.00 0.00 77 1016.1
20260505123843 51 13 9.0 12.0 0.00 0.00 0.00 78 1016.1
20260505123346 51 355 9.0 12.0 0.00 0.00 0.00 77 1016.0
20260505122842 51 5 8.0 13.0 0.00 0.00 0.00 76 1016.0
20260505122354 51 355 10.0 13.0 0.00 0.00 0.00 76 1016.1
20260505121850 51 360 9.0 13.0 0.00 0.00 0.00 75 1016.1
20260505121349 51 348 8.0 13.0 0.00 0.00 0.00 75 1016.1
20260505120845 52 355 6.0 10.0 0.00 0.00 0.00 77 1016.1
20260505120339 52 339 3.0 7.0 0.00 0.00 0.00 74 1016.0
20260505115843 52 263 3.0 4.0 0.00 0.00 0.00 72 1016.1
20260505115345 53 350 0.0 3.0 0.00 0.00 0.00 74 1016.0
20260505114840 53 350 1.0 3.0 0.00 0.00 0.00 74 1016.0
20260505114341 54 24 0.0 6.0 0.00 0.00 0.00 72 1016.1
20260505113847 55 296 1.0 6.0 0.00 0.00 0.00 69 1016.2
20260505113341 55 355 3.0 9.0 0.00 0.00 0.00 73 1016.3
20260505112841 55 227 6.0 9.0 0.00 0.00 0.00 73 1016.3
20260505112339 53 276 1.0 8.0 0.00 0.00 0.00 71 1016.4
20260505111857 54 269 2.0 5.0 0.00 0.00 0.00 74 1016.5
20260505111412 54 342 2.0 6.0 0.00 0.00 0.00 71 1016.6
20260505110849 55 332 3.0 6.0 0.00 0.00 0.00 76 1016.6
20260505110351 54 350 3.0 8.0 0.00 0.00 0.00 80 1016.7
20260505101854 50 360 0.0 2.0 0.00 0.00 0.00 78 1016.8
20260505101345 50 360 0.0 4.0 0.00 0.00 0.00 79 1016.8
20260505100850 51 360 2.0 6.0 0.00 0.00 0.00 79 1016.8
20260505100347 51 22 4.0 6.0 0.00 0.00 0.00 80 1016.9
20260505095845 51 360 4.0 6.0 0.00 0.00 0.00 79 1016.8
20260505095348 51 360 2.0 6.0 0.00 0.00 0.00 78 1016.8
20260505094913 51 349 2.0 8.0 0.00 0.00 0.00 77 1016.8
20260505094348 51 346 4.0 8.0 0.00 0.00 0.00 76 1016.8
20260505093841 52 16 3.0 6.0 0.00 0.00 0.00 78 1016.8
20260505093341 51 12 2.0 6.0 0.00 0.00 0.00 78 1016.9
20260505092842 51 355 3.0 8.0 0.00 0.00 0.00 79 1016.9
20260505092355 51 343 4.0 8.0 0.00 0.00 0.00 80 1017.0
20260505091859 52 330 4.0 8.0 0.00 0.00 0.00 81 1017.0
20260505091417 51 355 3.0 6.0 0.00 0.00 0.00 81 1017.0
20260505090846 50 254 1.0 6.0 0.00 0.00 0.00 81 1017.0
20260505090353 50 355 2.0 6.0 0.00 0.00 0.00 82 1016.9
20260505085853 49 355 3.0 10.0 0.00 0.00 0.00 82 1017.0
20260505085353 49 347 8.0 10.0 0.00 0.00 0.00 83 1017.0
20260505084838 50 348 6.0 10.0 0.00 0.00 0.00 83 1017.1
20260505084339 50 355 6.0 12.0 0.00 0.00 0.00 82 1017.1
20260505083900 50 5 7.0 12.0 0.00 0.00 0.00 83 1017.1
20260505083347 50 344 3.0 8.0 0.00 0.00 0.00 82 1017.1
20260505082846 50 338 3.0 8.0 0.00 0.00 0.00 83 1017.1
20260505082341 50 346 5.0 10.0 0.00 0.00 0.00 83 1017.1
20260505081839 50 355 6.0 12.0 0.00 0.00 0.00 82 1017.0
20260505081359 49 346 9.0 12.0 0.00 0.00 0.00 83 1017.1
20260505080849 49 303 5.0 9.0 0.00 0.00 0.00 84 1017.2
20260505080405 49 340 5.0 8.0 0.00 0.00 0.00 85 1017.1
20260505075843 49 5 1.0 7.0 0.00 0.00 0.00 85 1017.1
20260505075405 49 344 2.0 8.0 0.00 0.00 0.00 85 1017.1
20260505074904 48 346 2.0 8.0 0.00 0.00 0.00 86 1017.1
20260505074420 48 348 2.0 6.0 0.00 0.00 0.00 86 1017.0
20260505073858 48 344 2.0 5.0 0.00 0.00 0.00 86 1017.0
20260505073403 48 213 1.0 3.0 0.00 0.00 0.00 86 1017.1
20260505072838 48 259 1.0 3.0 0.00 0.00 0.00 86 1017.1
20260505072341 47 344 1.0 4.0 0.00 0.00 0.00 86 1017.1
20260505071901 47 279 2.0 4.0 0.00 0.00 0.00 87 1017.1
20260505071358 47 304 1.0 3.0 0.00 0.00 0.00 87 1017.1
20260505070851 47 295 0.0 3.0 0.00 0.00 0.00 87 1017.1
20260505070350 47 257 1.0 4.0 0.00 0.00 0.00 88 1017.1
20260505065837 47 318 1.0 4.0 0.00 0.00 0.00 88 1017.1
20260505065353 47 309 1.0 4.0 0.00 0.00 0.00 88 1017.1
20260505064910 46 287 0.0 4.0 0.00 0.00 0.00 88 1017.1
20260505064348 46 273 1.0 6.0 0.00 0.00 0.00 88 1017.1
20260505063851 46 292 3.0 6.0 0.00 0.00 0.00 88 1017.1
20260505063408 46 263 2.0 5.0 0.00 0.00 0.00 88 1017.2
20260505062904 46 286 2.0 5.0 0.00 0.00 0.00 88 1017.1
20260505062340 45 297 2.0 7.0 0.00 0.00 0.00 89 1017.1
20260505061839 45 333 1.0 7.0 0.00 0.00 0.00 89 1017.1
20260505061359 45 269 2.0 5.0 0.00 0.00 0.00 89 1017.1
20260505060844 45 279 2.0 4.0 0.00 0.00 0.00 89 1017.2
20260505060342 45 272 1.0 4.0 0.00 0.00 0.00 89 1017.1
20260505055853 45 282 2.0 4.0 0.00 0.00 0.00 89 1017.0
20260505055353 45 253 1.0 4.0 0.00 0.00 0.00 89 1016.9
20260505054843 44 264 2.0 3.0 0.00 0.00 0.00 89 1016.9
20260505054345 44 320 1.0 4.0 0.00 0.00 0.00 89 1016.9
20260505053839 44 292 1.0 5.0 0.00 0.00 0.00 89 1016.9
20260505053339 44 249 3.0 6.0 0.00 0.00 0.00 89 1016.9
20260505052858 44 340 3.0 5.0 0.00 0.00 0.00 88 1016.9
20260505052355 44 269 3.0 5.0 0.00 0.00 0.00 89 1016.9
20260505051847 44 252 3.0 4.0 0.00 0.00 0.00 89 1017.0
20260505051412 44 329 2.0 4.0 0.00 0.00 0.00 89 1016.9
20260505050847 44 355 2.0 8.0 0.00 0.00 0.00 89 1016.9
20260505050342 44 244 4.0 8.0 0.00 0.00 0.00 89 1016.9